Weather History for KGVL - October, 2014

Change the Weather History Date:

Thursday, October 30, 2014

  Actual Average Record
Temperature  
Mean Temperature 53 °F 58 °F  
Max Temperature 65 °F 68 °F 86 °F (1937)
Min Temperature 41 °F 48 °F 27 °F (1952)
Degree Days  
Heating Degree Days 12 8  
Month to date heating degree days 109 137  
Since 1 July heating degree days 109 150  
Cooling Degree Days 0 1  
Month to date cooling degree days 66 43  
Year to date cooling degree days 1677 1584  
Growing Degree Days 3 (Base 50)    
Moisture  
Dew Point 39 °F    
Average Humidity 67    
Maximum Humidity 100    
Minimum Humidity 34    
Precipitation  
Precipitation 0.00 in 0.10 in 2.20 in (1993)
Month to date precipitation 4.10 3.98  
Year to date precipitation 37.22 44.91  
Sea Level Pressure  
Sea Level Pressure 30.02 in    
Wind  
Wind Speed 3 mph (WNW)    
Max Wind Speed 12 mph    
Max Gust Speed 15 mph    
Visibility 10 miles    
Events      
T = Trace of Precipitation, MM = Missing Value Source: NWS Daily Summary

Daily Weather History Graph

Daily Weather History Graph

Search for Another Location

Airport or City:

Trip Planner

Search our weather history database for the weather conditions in past years. The results will help you decide how hot, cold, wet, or windy it might be!

Date:

Astronomy

Oct. 30, 2014 Rise Set
Actual Time 7:53 AM EDT 6:44 PM EDT
Civil Twilight 7:27 AM EDT 7:09 PM EDT
Nautical Twilight 6:57 AM EDT 7:39 PM EDT
Astronomical Twilight 6:28 AM EDT 8:08 PM EDT
Moon 1:55 PM EDT (10/30) No Moon Set
Length of Visible Light 11h 42m
Length of Day
10h 50m
Waxing Crescent, 45% of the Moon is Illuminated
Oct 30
Waxing Crescent
Oct 30
First Quarter
Nov 6
Full
Nov 14
Last Quarter
Nov 22
New

Hourly Weather History & Observations

Time (EDT) Temp. Dew Point Humidity Pressure Visibility Wind Dir Wind Speed Gust Speed Precip Events Conditions
12:53 AM 48.9 °F 41.0 °F 74% 30.04 in 10.0 mi Calm Calm - N/A   Clear
1:53 AM 46.9 °F 41.0 °F 80% 30.04 in 10.0 mi NW 3.5 mph - N/A   Clear
2:53 AM 45.0 °F 39.9 °F 82% 30.04 in 10.0 mi Calm Calm - N/A   Clear
3:53 AM 45.0 °F 41.0 °F 86% 30.03 in 10.0 mi Calm Calm - N/A   Clear
4:53 AM 44.1 °F 42.1 °F 93% 30.03 in 10.0 mi Calm Calm - N/A   Clear
5:53 AM 43.0 °F 42.1 °F 97% 30.04 in 10.0 mi Calm Calm - N/A   Clear
6:53 AM 43.0 °F 42.1 °F 97% 30.06 in 10.0 mi Calm Calm - N/A   Clear
7:53 AM 42.1 °F 39.9 °F 92% 30.07 in 10.0 mi Calm Calm - N/A   Clear
8:53 AM 46.9 °F 43.0 °F 86% 30.09 in 10.0 mi NNW 3.5 mph - N/A   Clear
9:53 AM 52.0 °F 42.1 °F 69% 30.10 in 10.0 mi NNW 3.5 mph - N/A   Clear
10:53 AM 57.9 °F 37.9 °F 47% 30.09 in 10.0 mi ESE 3.5 mph - N/A   Clear
11:53 AM 60.1 °F 37.9 °F 44% 30.08 in 10.0 mi North - - N/A   Clear
12:53 PM 62.1 °F 35.1 °F 37% 30.06 in 10.0 mi Calm Calm - N/A   Clear
1:53 PM 63.0 °F 36.0 °F 37% 30.03 in 10.0 mi WNW 4.6 mph - N/A   Clear
2:53 PM 63.0 °F 37.0 °F 38% 30.00 in 10.0 mi West 8.1 mph - N/A   Clear
3:53 PM 64.0 °F 35.1 °F 34% 29.98 in 10.0 mi Calm Calm - N/A   Clear
4:53 PM 64.9 °F 37.9 °F 37% 29.97 in 10.0 mi Variable 6.9 mph - N/A   Clear
5:53 PM 63.0 °F 37.0 °F 38% 29.98 in 10.0 mi SW 5.8 mph - N/A   Clear
6:53 PM 57.0 °F 39.0 °F 51% 29.99 in 10.0 mi SW 4.6 mph - N/A   Clear
7:53 PM 54.0 °F 39.9 °F 59% 29.99 in 10.0 mi West 5.8 mph - N/A   Clear
8:53 PM 55.0 °F 39.0 °F 55% 29.98 in 10.0 mi West 6.9 mph - N/A   Clear
9:53 PM 54.0 °F 39.0 °F 57% 29.98 in 10.0 mi NW 4.6 mph - N/A   Clear
10:53 PM 52.0 °F 39.9 °F 63% 29.97 in 10.0 mi North 3.5 mph - N/A   Clear
11:53 PM 48.9 °F 39.0 °F 69% 29.96 in 10.0 mi NW 4.6 mph - N/A   Clear